Weather History for Waco, TX

Change the Weather History Date:

Sunday, March 24, 2013

  Actual Average Record
Temperature  
Mean Temperature 46 °F 60 °F  
Max Temperature 55 °F 72 °F 89 °F (1929)
Min Temperature 36 °F 49 °F 30 °F (1966)
Degree Days  
Heating Degree Days 19 6  
Month to date heating degree days 225 208  
Since 1 July heating degree days 1791 2020  
Cooling Degree Days 0 1  
Month to date cooling degree days 15 23  
Year to date cooling degree days 32 32  
Moisture  
Dew Point 35 °F    
Average Humidity 59    
Maximum Humidity 89    
Minimum Humidity 28    
Precipitation  
Precipitation T in 0.10 in 1.34 in (1943)
Month to date precipitation 1.83 2.54  
Year to date precipitation 8.98 7.29  
Snow  
Snow 0.00 in 0.00 in 0.00 in ()
Month to date snowfall 0.0 0.1  
Since 1 July snowfall T 1.0  
Snow Depth 0.00 in    
Sea Level Pressure  
Sea Level Pressure 30.00 in    
Wind  
Wind Speed 17 mph (NNW)    
Max Wind Speed 30 mph    
Max Gust Speed 39 mph    
Visibility 8 miles    
Events Rain    
T = Trace of Precipitation, MM = Missing Value Source: NWS Daily Summary

Daily Weather History Graph

Daily Weather History Graph

Search for Another Location

Airport:

Trip Planner

Search our weather history database for the weather conditions in past years. The results will help you decide how hot, cold, wet, or windy it might be!

Date:

Astronomy

Mar. 24, 2013 Rise Set
Actual Time 7:27 AM CDT 7:43 PM CDT
Civil Twilight 7:02 AM CDT 8:07 PM CDT
Nautical Twilight 6:34 AM CDT 8:36 PM CDT
Astronomical Twilight 6:05 AM CDT 9:04 PM CDT
Moon 5:20 PM CDT (3/24) 5:29 AM CDT (3/24)
Length of Visible Light 13h 04m
Length of Day
12h 16m
Waxing Gibbous, 92% of the Moon is Illuminated
Mar 24
Waxing Gibbous
Mar 27
Full
Apr 2
Last Quarter
Apr 10
New
Apr 18
First Quarter

Hourly Weather History & Observations

Time (CDT) Temp. Windchill Dew Point Humidity Pressure Visibility Wind Dir Wind Speed Gust Speed Precip Events Conditions
12:03 AM 53.6 °F - 51.8 °F 94% 29.79 in 1.8 mi NNW 18.4 mph 27.6 mph N/A   Overcast
12:15 AM 53.6 °F - 51.8 °F 94% 29.80 in 1.0 mi NNW 20.7 mph 26.5 mph 0.01 in   Overcast
12:31 AM 53.6 °F - 51.8 °F 94% 29.80 in 2.5 mi North 16.1 mph 26.5 mph 0.01 in Rain Light Rain
12:49 AM 53.6 °F - 50.0 °F 88% 29.83 in 3.0 mi North 18.4 mph 24.2 mph 0.01 in   Overcast
12:51 AM 53.1 °F - 50.0 °F 89% 29.82 in 3.0 mi North 15.0 mph 24.2 mph 0.01 in   Overcast
1:06 AM 51.8 °F - 50.0 °F 94% 29.82 in 4.0 mi North 17.3 mph - N/A   Overcast
1:37 AM 51.8 °F - 48.2 °F 88% 29.86 in 9.0 mi NNW 20.7 mph 27.6 mph N/A   Overcast
1:51 AM 52.0 °F - 48.0 °F 86% 29.86 in 4.0 mi North 23.0 mph 28.8 mph 0.00 in Rain Light Rain
1:56 AM 51.8 °F - 48.2 °F 88% 29.87 in 4.0 mi North 23.0 mph 32.2 mph 0.00 in Rain Light Rain
2:15 AM 51.8 °F - 44.6 °F 76% 29.88 in 10.0 mi North 24.2 mph 35.7 mph 0.00 in   Overcast
2:25 AM 50.0 °F - 44.6 °F 82% 29.89 in 10.0 mi North 24.2 mph 29.9 mph 0.00 in   Overcast
2:51 AM 50.0 °F - 43.0 °F 77% 29.90 in 10.0 mi NNW 20.7 mph 27.6 mph 0.00 in   Overcast
3:06 AM 50.0 °F - 42.8 °F 76% 29.92 in 10.0 mi NNW 21.9 mph 35.7 mph N/A   Overcast
3:31 AM 48.2 °F - 41.0 °F 76% 29.93 in 10.0 mi NNW 19.6 mph 29.9 mph N/A   Overcast
3:51 AM 46.9 °F - 39.0 °F 74% 29.94 in 10.0 mi NNW 18.4 mph 35.7 mph N/A   Mostly Cloudy
4:01 AM 46.4 °F 37.7 °F 39.2 °F 76% 29.94 in 10.0 mi NW 26.5 mph 38.0 mph N/A   Overcast
4:51 AM 44.1 °F 36.2 °F 35.1 °F 71% 29.97 in 10.0 mi NNW 18.4 mph 24.2 mph N/A   Mostly Cloudy
5:03 AM 44.6 °F 36.6 °F 33.8 °F 66% 29.97 in 10.0 mi NW 19.6 mph 26.5 mph N/A   Scattered Clouds
5:51 AM 42.1 °F 33.6 °F 30.9 °F 65% 30.01 in 10.0 mi NNW 18.4 mph 32.2 mph N/A   Clear
6:51 AM 39.0 °F 28.8 °F 28.0 °F 65% 30.04 in 10.0 mi NNW 21.9 mph 34.5 mph N/A   Clear
7:51 AM 37.4 °F 27.5 °F 28.4 °F 70% 30.08 in 10.0 mi NW 18.4 mph 26.5 mph N/A   Clear
8:51 AM 41.0 °F 31.6 °F 27.0 °F 57% 30.12 in 10.0 mi NNW 20.7 mph 28.8 mph N/A   Clear
9:51 AM 44.1 °F 34.8 °F 27.0 °F 51% 30.14 in 10.0 mi NNW 25.3 mph 33.4 mph N/A   Partly Cloudy
10:51 AM 46.0 °F 37.6 °F 26.1 °F 46% 30.16 in 10.0 mi NNW 24.2 mph 31.1 mph N/A   Partly Cloudy
11:51 AM 46.9 °F - 26.1 °F 44% 30.17 in 10.0 mi NW 20.7 mph 33.4 mph N/A   Clear
12:51 PM 50.0 °F - 26.1 °F 39% 30.16 in 10.0 mi NNW 20.7 mph 28.8 mph N/A   Clear
1:51 PM 52.0 °F - 26.1 °F 37% 30.13 in 10.0 mi NNW 19.6 mph 27.6 mph N/A   Clear
2:51 PM 53.1 °F - 25.0 °F 34% 30.11 in 10.0 mi NNW 21.9 mph 34.5 mph N/A   Clear
3:51 PM 54.0 °F - 24.1 °F 31% 30.08 in 10.0 mi NNW 25.3 mph 31.1 mph N/A   Clear
4:51 PM 55.4 °F - 24.8 °F 31% 30.07 in 10.0 mi NNW 17.3 mph 31.1 mph N/A   Clear
5:51 PM 55.0 °F - 25.0 °F 31% 30.07 in 10.0 mi NNW 13.8 mph 23.0 mph N/A   Clear
6:51 PM 53.1 °F - 21.9 °F 30% 30.07 in 10.0 mi North 19.6 mph 27.6 mph N/A   Clear
7:51 PM 48.9 °F - 23.0 °F 36% 30.09 in 10.0 mi North 12.7 mph - N/A   Clear
8:51 PM 46.0 °F 41.4 °F 24.1 °F 42% 30.11 in 10.0 mi North 9.2 mph - N/A   Clear
9:51 PM 39.9 °F 36.7 °F 25.0 °F 55% 30.15 in 10.0 mi North 4.6 mph - N/A   Clear
10:51 PM 39.9 °F 35.8 °F 24.1 °F 53% 30.17 in 10.0 mi NNW 5.8 mph - N/A   Clear
11:51 PM 37.0 °F 31.6 °F 23.0 °F 57% 30.19 in 10.0 mi NNW 6.9 mph - N/A   Clear